Regional Weather Roundup
Issued by NWS

Home | Current Version | Previous Version | Text Only | Print | Product List | Glossary Off
Versions: 1 2 3 4 5 6 7 8 9 10 11 12 13 14 15 16 17 18 19 20 21 22 23 24 25 26 27 28 29 30 31 32 33 34 35 36 37 38 39 40 41 42 43 44 45 46 47 48 49 50

000
ASUS45 KABQ 010910
RWRNM
WEATHER ROUNDUP FOR NEW MEXICO
NATIONAL WEATHER SERVICE ALBUQUERQUE NM
300 AM MDT FRI AUG 01 2014

NOTE: "FAIR" MEANS FEW OR NO CLOUDS BELOW 12,000 FEET AGL WITH NO
       SIGNIFICANT WEATHER OR OBSTRUCTIONS TO VISION.

      THIS PRODUCT IS RELEASED AS TWO VERSIONS.  ONE VERSION NEAR
      THE TOP OF THE HOUR CONTAINING PRELIMINARY DATA FROM ALBUQUERQUE
      AND OTHER STATIONS.  A FINAL VERSION WITH ADDITIONAL DATA IS
      ISSUED ABOUT 10 MINUTES AFTER THE HOUR.

NMZ501-503-504-510>518-011000-
NORTHWEST PLATEAU/NORTHCENTRAL MOUNTAINS

CITY           SKY/WX    TMP DP  RH WIND       PRES   REMARKS
FARMINGTON     CLEAR     65  53  65 NE5       30.21F
LOS ALAMOS     CLOUDY    56  50  80 S9        30.38S
SANTA FE       MOCLDY    57  53  86 SE8       30.33
TAOS           CLOUDY    52  48  87 CALM      30.39R
ANGEL FIRE     CLOUDY    51  49  93 SE3       30.46S

$$
NMZ402-403-502-505>509-011000-
WESTCENTRAL MOUNTAINS/SOUTHWEST MOUNTAINS

CITY           SKY/WX    TMP DP  RH WIND       PRES   REMARKS
GALLUP         CLOUDY    60  55  83 S8        30.28F
SILVER CITY    CLOUDY    64  59  82 NW5       30.25S

$$
NMZ407-409-411-412-011000-
SOUTHERN DESERTS

CITY           SKY/WX    TMP DP  RH WIND       PRES   REMARKS
LORDSBURG      DRIZZLE   70  61  73 CALM      30.18R
DEMING         LGT RAIN  65  64  97 E10       30.19R
LAS CRUCES     CLOUDY    64  62  96 NE7       30.23S
HOLLOMAN AFB   RAIN      64  64 100 NE12      30.18S FOG
ALAMOGORDO     HVY RAIN  64  64 100 N8        30.20R
T OR C         CLOUDY    64  60  87 NE5       30.22R

$$
NMZ519>523-011000-
CENTRAL VALLEYS/CENTRAL HIGHLANDS

CITY           SKY/WX    TMP DP  RH WIND       PRES   REMARKS
ALBUQUERQUE    MOCLDY    64  54  69 E8        30.27F
DOUBLE EAGLE   MOCLDY    60  55  83 N3        30.30S
MORIARTY ARPT  PTSUNNY   57  55  91 CALM      30.34F
CLINES CORNERS CLOUDY    56  54  93 E7        30.36S
BELEN          FAIR      62  57  83 S7        30.25F
SOCORRO        FAIR      64  58  83 CALM      30.23F

$$
NMZ524>526-539-540-011000-
SOUTHCENTRAL MOUNTAINS

CITY           SKY/WX    TMP DP  RH WIND       PRES   REMARKS
RUIDOSO        LGT RAIN  55  55 100 N5        30.37F

$$
NMZ527>531-011000-
NORTHEAST HIGHLANDS/NORTHEAST PLAINS

CITY           SKY/WX    TMP DP  RH WIND       PRES   REMARKS
LAS VEGAS      CLOUDY    53  52  96 NW3       30.37F
RATON          LGT RAIN  58  57  97 E6        30.33S
CLAYTON        CLOUDY    65  55  70 CALM      30.27F

$$
NMZ532>537-011000-
EASTCENTRAL PLAINS

CITY           SKY/WX    TMP DP  RH WIND       PRES   REMARKS
TUCUMCARI      CLOUDY    69  55  60 SE3       30.21S
CANNON AFB     CLOUDY    63  54  72 SE3       30.24R
CLOVIS AIRPORT NOT AVBL

$$
NMZ028-029-538-011000-
SOUTHEAST PLAINS

CITY           SKY/WX    TMP DP  RH WIND       PRES   REMARKS
ROSWELL        RAIN      66  64  93 N13       30.19S FOG
ARTESIA        CLOUDY    68  64  88 N20G28    30.18R
CARLSBAD       CLOUDY    73  66  78 CALM      30.13R
HOBBS          CLOUDY    68  57  68 E8        30.18S


$$


USA.gov is the U.S. government's official web portal to all federal, state and local government web resources and services.